Simultaneous Nadir Overpasses (SNOs) Predictions

Prediction of SNOs between AQUA and METOP-A Satellite Orbit:

Table of predicted SNOs for the next 14.0 days since TLE Epoch: 12/19/2015
Index Date (AQUA) Time (AQUA) Lat,Lon (AQUA) SZA (AQUA ) Date (METOP-A) Time (METOP-A) Lat,Lon (METOP-A) SZA (METOP-A ) Distance(km) Time Diff (sec)
1 12/19/2015 23:14:19 -73.84, 5.59 82.78 12/19/2015 23:13:21 -73.83, 5.56 82.78 1.15 58
2 12/20/2015 00:03:48 73.92, 173.03 97.31 12/20/2015 00:03:59 73.91, 173.09 97.30 2.30 11
3 12/20/2015 00:53:23 -74.40, -20.42 82.19 12/20/2015 00:54:31 -74.40, -18.36 82.24 61.82 68
4 12/22/2015 18:48:36 -73.85, 72.00 82.75 12/22/2015 18:47:45 -73.83, 71.96 82.76 2.43 51
5 12/22/2015 19:38:04 73.88,-120.45 97.30 12/22/2015 19:38:23 73.91,-120.51 97.32 3.05 19
6 12/22/2015 20:27:45 -74.66, 45.36 81.88 12/22/2015 20:28:50 -74.64, 48.68 81.99 97.82 65
7 12/25/2015 14:22:53 -73.88, 138.36 82.75 12/25/2015 14:22:08 -73.87, 138.47 82.76 3.23 45
8 12/25/2015 15:12:21 73.92, -54.10 97.30 12/25/2015 15:12:47 73.90, -54.12 97.28 2.49 26
9 12/28/2015 09:57:08 -73.88,-155.20 82.85 12/28/2015 09:56:31 -73.85,-155.16 82.87 2.74 37
10 12/28/2015 10:46:36 73.92, 12.33 97.21 12/28/2015 10:47:09 73.94, 12.37 97.21 1.83 33
11 12/31/2015 05:31:23 -73.85, -88.69 83.04 12/31/2015 05:30:55 -73.83, -88.79 83.04 3.31 28
12 12/31/2015 06:20:51 73.90, 78.83 97.02 12/31/2015 06:21:33 73.92, 78.74 97.04 3.48 42




NCC Satellite Simultaneous Nadir Overpasses (SNOs) Prediction Service
